RH
20 21 21 19 17 20 25 24 20 18 19 18 17 18 20 21 19 21 25 24 29 28 27 27 24 22 23 33 43 39 27 36 56 64 75 66 70 60 70 68 66 59 53 35 35
20 21 20 17 18 21 27 23 20 17 19 18 17 18 22 24 23 22 22 25 30 31 29 23 22 21 26 37 42 41 37 38 46 54 69 64 56 55 62 66 56 48 41 34 31
20 21 18 17 19 23 27 25 21 18 20 18 17 19 24 24 24 24 29 30 29 26 24 21 20 20 24 34 36 40 41 42 45 58 68 60 50 47 54 40 25 31 36 27 23
20 20 17 18 21 25 25 19 18 20 21 19 16 20 23 24 28 29 28 27 25 23 22 20 23 21 33 35 34 39 44 44 49 60 60 56 42 38 33 23 20 19 22 20 19
21 18 18 20 25 25 21 18 22 24 22 18 17 19 23 26 28 28 27 26 23 22 20 27 28 35 38 37 38 40 40 47 53 54 55 45 35 33 29 26 21 23 22 19 17
21 18 20 24 25 22 20 21 25 26 23 19 18 21 28 29 29 29 28 27 26 24 34 36 38 39 38 39 37 35 34 39 42 45 44 36 32 28 31 30 29 27 27 27 25
20 19 22 24 21 20 23 24 26 25 24 20 20 25 31 30 29 31 29 30 28 31 43 42 41 40 39 37 32 31 31 31 31 33 31 29 23 22 31 33 31 34 34 34 34
20 20 22 24 20 24 26 27 28 26 24 22 24 30 34 31 29 31 32 31 33 43 45 41 42 39 38 32 29 30 29 27 26 24 25 22 18 21 35 35 33 35 38 37 38
21 22 24 23 24 28 29 29 29 27 27 26 28 35 37 34 31 32 33 32 39 44 42 42 40 37 35 31 29 23 24 24 22 20 19 17 21 27 38 39 35 36 37 40 42
22 23 25 23 27 28 27 27 28 28 30 32 34 43 41 37 30 33 34 35 44 45 43 42 39 34 32 29 30 24 29 28 25 22 22 23 35 35 42 43 40 39 40 43 44
23 25 24 24 28 27 28 29 29 31 31 30 38 45 43 37 28 33 34 39 40 41 44 40 39 34 32 31 28 24 34 32 30 30 34 38 37 35 38 38 40 41 41 45 48
26 26 23 25 27 26 28 30 32 35 32 31 43 45 37 33 32 31 35 38 38 41 40 43 40 39 37 34 33 31 37 33 35 34 32 37 37 37 34 36 41 41 44 47 50
26 25 23 25 24 27 29 38 40 40 38 37 42 40 34 30 31 29 34 41 38 41 38 38 32 35 35 36 39 36 33 37 38 40 38 35 35 37 38 36 38 43 45 48 52
26 25 24 24 25 33 40 42 45 45 38 33 38 37 33 30 26 26 32 38 39 42 41 41 36 35 39 42 39 39 37 32 29 31 33 33 29 34 39 41 40 41 42 46 53
27 25 24 26 29 40 47 47 52 44 41 32 35 32 30 28 23 24 29 34 37 40 40 40 38 36 40 39 37 39 41 40 37 36 33 33 33 35 43 42 41 43 48 54 60
28 27 25 29 38 46 49 51 46 43 41 29 30 29 28 27 25 22 28 32 35 41 36 36 32 33 32 38 39 37 33 34 35 35 38 34 33 30 38 35 44 48 54 58 58
30 28 28 33 46 48 52 46 42 45 30 29 28 26 27 28 24 25 29 32 30 34 35 33 34 35 34 35 35 30 29 35 36 40 36 36 39 32 34 40 45 50 55 55 57
33 30 32 38 50 51 42 44 40 32 35 26 25 25 30 29 25 27 29 32 31 29 37 37 35 34 32 30 30 32 32 38 40 46 43 42 42 35 39 39 44 50 51 52 54
36 35 37 45 53 53 37 45 35 38 34 28 27 30 33 31 25 28 31 33 32 32 34 38 36 32 31 32 32 34 33 33 44 50 44 35 36 34 35 34 38 43 46 50 52
40 41 41 49 58 50 38 40 32 43 32 28 27 29 29 30 27 27 31 33 32 31 31 35 38 33 32 30 31 31 34 38 38 39 35 30 32 27 31 33 35 40 43 46 51
46 51 47 55 62 45 38 36 39 45 33 27 26 24 24 28 28 25 28 28 29 29 29 31 35 37 37 34 32 33 36 34 33 36 32 34 24 27 28 31 33 37 41 46 50
49 58 57 56 57 43 35 35 47 43 33 27 25 25 24 27 30 29 27 27 27 27 30 33 40 45 44 38 33 33 32 30 30 28 39 37 26 24 26 29 33 37 41 45 48
52 58 65 53 50 43 36 45 48 41 33 29 31 32 33 35 37 37 34 33 33 33 34 34 39 45 41 37 37 33 32 31 30 32 32 41 23 24 27 28 32 37 41 45 50
54 67 69 55 39 37 41 48 49 42 36 33 34 35 37 40 43 47 39 34 36 37 36 33 36 38 40 34 35 31 33 31 29 33 28 28 22 20 25 27 31 36 41 47 52
58 57 56 52 41 37 46 49 48 44 38 37 37 34 36 41 45 50 49 44 44 44 42 35 34 36 37 37 33 28 26 28 26 25 26 20 21 19 21 25 30 35 41 46 52
56 51 50 43 38 38 50 50 47 47 40 34 35 36 36 38 37 50 48 47 42 44 43 39 38 36 37 38 36 32 27 25 27 26 25 25 22 21 24 26 31 36 41 46 51
58 47 43 48 42 41 48 48 47 47 43 37 32 33 34 36 38 43 44 40 39 40 43 39 40 39 38 37 32 32 25 25 25 24 24 27 19 23 26 28 30 35 41 45 49